Weather History for Gunnison, CO

Change the Weather History Date:

Tuesday, September 10, 2013

  Actual Average Record
Temperature  
Mean Temperature 60 °F -  
Max Temperature 68 °F 68 °F 77 °F (1996)
Min Temperature 51 °F 36 °F 24 °F (2001)
Degree Days  
Heating Degree Days 6    
Growing Degree Days 10 (Base 50)    
Moisture  
Dew Point 49 °F    
Average Humidity 74    
Maximum Humidity 88    
Minimum Humidity 43    
Precipitation  
Precipitation 0.01 in - - ()
Sea Level Pressure  
Sea Level Pressure 30.27 in    
Wind  
Wind Speed 4 mph (NNE)    
Max Wind Speed 13 mph    
Max Gust Speed 18 mph    
Visibility 10 miles    
Events      
Averages and records for this station are not official NWS values.
T = Trace of Precipitation, MM = Missing Value Source: NWS Daily Summary

Daily Weather History Graph

Daily Weather History Graph

Search for Another Location

Airport:

Trip Planner

Search our weather history database for the weather conditions in past years. The results will help you decide how hot, cold, wet, or windy it might be!

Date:

Astronomy

Sep. 10, 2013 Rise Set
Actual Time 6:45 AM MDT 7:23 PM MDT
Civil Twilight 6:18 AM MDT 7:49 PM MDT
Nautical Twilight 5:46 AM MDT 8:21 PM MDT
Astronomical Twilight 5:14 AM MDT 8:53 PM MDT
Moon 12:09 PM MDT (9/10) 10:33 PM MDT (9/10)
Length of Visible Light 13h 31m
Length of Day
12h 38m
Waxing Crescent, 29% of the Moon is Illuminated
Sep 10
Waxing Crescent
Sep 12
First Quarter
Sep 19
Full
Sep 26
Last Quarter
Oct 4
New

Hourly Weather History & Observations

Time (MDT) Temp. Dew Point Humidity Pressure Visibility Wind Dir Wind Speed Gust Speed Precip Events Conditions
12:15 AM 55.4 °F 48.2 °F 77% 30.24 in 10.0 mi SSW 4.6 mph - N/A   Overcast
1:15 AM 55.4 °F 48.2 °F 77% 30.22 in 10.0 mi NNE 5.8 mph - N/A   Mostly Cloudy
1:35 AM 53.6 °F 48.2 °F 82% 30.23 in 10.0 mi SE 3.5 mph - N/A   Mostly Cloudy
1:55 AM 53.6 °F 48.2 °F 82% 30.23 in 10.0 mi Calm Calm - N/A   Overcast
2:15 AM 55.4 °F 48.2 °F 77% 30.23 in 10.0 mi Calm Calm - N/A   Scattered Clouds
2:35 AM 53.6 °F 48.2 °F 82% 30.23 in 10.0 mi Calm Calm - N/A   Clear
3:35 AM 51.8 °F 48.2 °F 88% 30.23 in 10.0 mi Calm Calm - N/A   Partly Cloudy
3:55 AM 51.8 °F 46.4 °F 82% 30.23 in 10.0 mi Calm Calm - N/A   Mostly Cloudy
4:15 AM 51.8 °F 48.2 °F 88% 30.23 in 10.0 mi Calm Calm - N/A   Mostly Cloudy
4:35 AM 51.8 °F 46.4 °F 82% 30.22 in 10.0 mi NE 4.6 mph - N/A   Mostly Cloudy
4:55 AM 51.8 °F 48.2 °F 88% 30.22 in 10.0 mi Calm Calm - N/A   Overcast
5:15 AM 51.8 °F 48.2 °F 88% 30.23 in 10.0 mi Calm Calm - N/A   Overcast
5:35 AM 51.8 °F 48.2 °F 88% 30.23 in 10.0 mi Calm Calm - N/A   Overcast
5:55 AM 51.8 °F 48.2 °F 88% 30.23 in 10.0 mi Calm Calm - N/A   Overcast
6:35 AM 53.6 °F 48.2 °F 82% 30.24 in 10.0 mi NNE 4.6 mph - N/A   Scattered Clouds
6:55 AM 53.6 °F 46.4 °F 77% 30.24 in 10.0 mi NNE 6.9 mph - N/A   Clear
7:15 AM 53.6 °F 46.4 °F 77% 30.25 in 10.0 mi North 4.6 mph - N/A   Clear
7:35 AM 53.6 °F 46.4 °F 77% 30.25 in 10.0 mi North 6.9 mph - N/A   Clear
7:55 AM 53.6 °F 48.2 °F 82% 30.26 in 10.0 mi North 6.9 mph - N/A   Clear
8:15 AM 55.4 °F 48.2 °F 77% 30.26 in 10.0 mi NE 6.9 mph - N/A   Clear
8:35 AM 57.2 °F 48.2 °F 72% 30.26 in 10.0 mi NE 9.2 mph - N/A   Mostly Cloudy
8:55 AM 57.2 °F 48.2 °F 72% 30.27 in 10.0 mi NNE 8.1 mph - N/A   Overcast
9:15 AM 57.2 °F 48.2 °F 72% 30.26 in 10.0 mi North 9.2 mph - N/A   Overcast
9:55 AM 59.0 °F 48.2 °F 67% 30.27 in 10.0 mi North 6.9 mph - N/A   Mostly Cloudy
10:15 AM 60.8 °F 48.2 °F 63% 30.27 in 10.0 mi North 5.8 mph - N/A   Overcast
10:35 AM 62.6 °F 50.0 °F 63% 30.26 in 10.0 mi NW 9.2 mph - N/A   Mostly Cloudy
11:35 AM 68.0 °F 44.6 °F 43% 30.26 in 10.0 mi SE 11.5 mph 18.4 mph N/A   Partly Cloudy
11:55 AM 66.2 °F 44.6 °F 46% 30.26 in 10.0 mi South 12.7 mph 18.4 mph N/A   Mostly Cloudy
12:15 PM 62.6 °F 48.2 °F 59% 30.26 in 10.0 mi Calm Calm - N/A   Overcast
12:55 PM 62.6 °F 50.0 °F 63% 30.25 in 10.0 mi WSW 9.2 mph - N/A   Mostly Cloudy
1:15 PM 62.6 °F 50.0 °F 63% 30.26 in 10.0 mi SW 5.8 mph - N/A   Mostly Cloudy
1:35 PM 62.6 °F 51.8 °F 68% 30.25 in 10.0 mi WSW 11.5 mph - N/A   Mostly Cloudy
1:55 PM 60.8 °F 50.0 °F 68% 30.26 in 10.0 mi SSW 9.2 mph - N/A   Mostly Cloudy
2:15 PM 59.0 °F 51.8 °F 77% 30.25 in 10.0 mi SW 9.2 mph - N/A   Overcast
2:55 PM 60.8 °F 51.8 °F 72% 30.25 in 10.0 mi SW 8.1 mph - N/A   Overcast
3:15 PM 60.8 °F 51.8 °F 72% 30.25 in 10.0 mi Calm Calm - N/A   Overcast
3:35 PM 60.8 °F 51.8 °F 72% 30.26 in 10.0 mi Calm Calm - N/A   Overcast
4:15 PM 60.8 °F 50.0 °F 68% 30.27 in 10.0 mi NNE 6.9 mph - N/A   Overcast
4:35 PM 60.8 °F 48.2 °F 63% 30.27 in 10.0 mi NE 6.9 mph - N/A   Overcast
4:55 PM 60.8 °F 48.2 °F 63% 30.27 in 10.0 mi NNE 9.2 mph - N/A   Overcast
5:15 PM 60.8 °F 48.2 °F 63% 30.27 in 10.0 mi NE 4.6 mph - N/A   Mostly Cloudy
5:35 PM 60.8 °F 48.2 °F 63% 30.28 in 10.0 mi ENE 3.5 mph - N/A   Mostly Cloudy
5:55 PM 60.8 °F 50.0 °F 68% 30.28 in 10.0 mi Calm Calm - N/A   Overcast
6:15 PM 60.8 °F 51.8 °F 72% 30.29 in 10.0 mi NNE 4.6 mph - N/A   Mostly Cloudy
6:35 PM 60.8 °F 50.0 °F 68% 30.29 in 10.0 mi North 3.5 mph - N/A   Mostly Cloudy
6:55 PM 59.0 °F 51.8 °F 77% 30.29 in 10.0 mi North 3.5 mph - N/A   Mostly Cloudy
7:15 PM 57.2 °F 51.8 °F 82% 30.29 in 10.0 mi NNW 3.5 mph - N/A   Partly Cloudy
7:35 PM 57.2 °F 51.8 °F 82% 30.30 in 10.0 mi Calm Calm - N/A   Scattered Clouds
7:55 PM 57.2 °F 51.8 °F 82% 30.31 in 10.0 mi SE 3.5 mph - N/A   Overcast
8:15 PM 57.2 °F 48.2 °F 72% 30.31 in 10.0 mi SE 4.6 mph - N/A   Overcast
8:35 PM 57.2 °F 48.2 °F 72% 30.32 in 10.0 mi Calm Calm - N/A   Overcast
8:55 PM 55.4 °F 46.4 °F 72% 30.32 in 10.0 mi East 3.5 mph - N/A   Scattered Clouds
9:15 PM 55.4 °F 48.2 °F 77% 30.31 in 10.0 mi Calm Calm - N/A   Partly Cloudy
9:35 PM 55.4 °F 48.2 °F 77% 30.31 in 10.0 mi North 4.6 mph - N/A   Partly Cloudy
9:55 PM 55.4 °F 48.2 °F 77% 30.33 in 10.0 mi SW 6.9 mph - N/A   Partly Cloudy
10:15 PM 55.4 °F 48.2 °F 77% 30.32 in 8.0 mi East 5.8 mph - N/A   Mostly Cloudy
10:55 PM 55.4 °F 46.4 °F 72% 30.33 in 10.0 mi NNE 4.6 mph - 0.01 in   Overcast
11:15 PM 55.4 °F 48.2 °F 77% 30.33 in 10.0 mi WSW 3.5 mph - N/A   Overcast
11:55 PM 55.4 °F 48.2 °F 77% 30.33 in 10.0 mi Calm Calm - N/A   Overcast